Wind_Speed
33 34 34 35 35 36 36 36 37 37 37 37 38 38 39 39 39 39 39 39 39 40 40 40 41 41 42 42 42 43 43 43 43 44 44 44 44 44 44 44 45 45 46
34 35 36 36 37 38 38 38 39 40 40 41 42 42 42 43 43 43 43 43 43 44 44 44 44 45 45 45 46 46 46 46 47 47 47 47 47 47 47 47 47 47 48
34 35 36 37 38 39 39 40 41 41 42 43 44 45 45 46 46 46 46 47 47 47 47 48 48 48 49 49 49 49 49 49 50 50 50 50 50 50 50 50 50 50 50
35 35 36 37 38 39 40 41 42 43 44 45 46 47 48 48 48 49 49 49 50 50 51 51 52 52 52 52 52 52 52 52 53 53 53 53 53 53 53 53 53 53 53
34 35 36 37 38 39 40 41 42 44 44 46 47 48 49 50 50 51 51 52 52 53 54 54 55 55 55 55 55 56 56 56 56 56 56 55 55 55 55 55 55 55 55
34 35 36 37 39 39 40 42 43 44 45 46 48 48 49 50 51 52 53 54 54 55 56 57 58 58 58 58 59 59 59 59 59 58 58 58 57 57 57 57 57 57 57
36 37 37 38 40 40 41 43 44 45 46 48 49 50 50 51 51 52 54 55 56 57 58 59 60 61 61 61 62 62 62 61 61 61 60 60 59 59 59 59 59 58 58
38 39 40 40 41 42 43 45 46 47 48 50 51 52 52 52 52 53 55 56 58 59 60 61 62 63 64 64 64 64 64 64 64 63 63 62 62 62 61 61 61 60 60
39 40 41 42 43 44 45 47 48 49 50 52 53 55 56 56 56 56 57 58 60 62 63 64 65 66 66 67 67 67 67 67 67 66 66 65 65 64 63 63 63 62 62
41 42 43 44 45 46 47 49 51 52 54 55 58 59 61 63 64 62 61 62 63 65 66 67 68 69 70 70 70 70 70 70 70 69 69 68 67 66 66 65 65 64 63
42 43 45 46 47 49 51 53 55 57 59 61 63 64 66 68 69 71 70 69 69 69 70 71 72 73 74 74 74 73 73 73 73 72 72 71 70 69 69 68 67 66 65
44 46 47 49 51 53 55 57 60 62 64 66 68 70 72 73 74 77 77 76 77 76 76 76 76 76 77 77 77 77 77 76 76 75 74 74 73 72 71 70 69 68 67
47 49 51 53 56 58 61 63 65 68 70 72 74 75 77 79 80 81 83 83 83 82 82 81 80 80 80 80 80 80 80 79 79 78 77 76 75 74 73 72 70 69 68
51 53 56 58 61 64 66 69 71 73 75 77 78 80 82 83 84 85 87 88 88 87 86 85 85 84 83 83 82 82 82 81 81 80 79 78 77 76 75 73 72 71 70
55 58 61 63 66 69 71 73 75 77 79 81 82 83 85 86 87 87 88 89 90 89 87 85 86 86 85 84 84 83 82 81 80 80 78 77 76 75 75 75 74 73 72
60 62 65 68 70 73 75 77 79 81 82 83 85 85 85 85 86 87 87 88 88 89 87 82 83 84 83 81 81 80 79 78 77 77 76 75 75 75 75 74 73 72 72
64 67 69 72 74 77 79 81 82 83 84 84 84 84 83 83 83 83 84 84 84 83 83 77 78 78 78 77 76 75 75 74 73 73 72 72 72 73 72 73 72 71 71
68 71 73 76 78 80 81 82 83 83 83 82 81 80 79 79 78 77 76 75 75 75 75 72 71 73 73 73 72 72 72 71 71 70 69 69 69 69 69 69 69 70 70
72 74 77 79 80 81 82 82 81 80 79 78 77 75 73 72 70 69 68 68 67 68 68 67 64 66 67 67 68 68 68 68 68 68 67 67 67 67 67 66 67 67 67
75 77 79 80 81 81 80 78 77 76 75 73 71 69 67 65 64 63 62 62 62 62 62 61 58 58 59 60 61 61 62 64 65 66 65 64 64 64 65 65 65 65 65
78 79 80 80 79 78 76 75 74 72 70 67 64 62 61 59 58 58 57 57 56 56 55 54 53 52 52 54 55 56 58 59 60 61 62 62 62 62 63 63 64 64 65
79 79 79 78 76 74 73 71 69 67 64 61 58 56 55 54 53 53 52 52 52 51 50 49 48 48 47 49 50 52 53 54 55 55 57 58 59 59 60 61 62 63 64
78 77 76 75 72 70 69 67 64 62 58 56 54 53 52 51 50 49 47 47 46 46 45 45 45 44 44 45 47 48 49 51 51 53 54 54 56 57 58 59 59 60 61
77 75 73 71 69 66 65 62 60 57 55 52 51 50 49 48 47 46 45 43 42 42 43 43 43 42 43 44 45 46 47 47 48 49 51 52 54 55 56 57 58 59 60
74 72 70 68 65 63 60 58 56 54 51 49 49 48 47 46 44 43 43 42 41 40 41 41 42 41 42 42 43 44 45 45 46 47 48 50 51 54 55 55 56 57 58
72 69 66 64 62 59 57 55 54 51 49 47 46 45 44 43 41 41 41 40 39 39 39 39 40 40 40 41 42 43 44 45 46 46 47 48 50 52 52 53 54 55 56
Wind_Direction
275 275 275 275 275 274 274 274 274 274 274 274 274 274 274 275 275 275 275 276 276 276 276 276 276 276 276 276 276 276 276 276 275 275 275 275 274 273 272 271 269 268 267
277 277 276 276 275 275 275 275 275 275 274 274 274 274 274 275 275 275 275 275 276 276 276 276 276 276 276 276 276 276 275 275 275 275 275 275 274 274 273 272 271 269 268
279 279 279 278 278 277 277 276 276 275 275 274 274 274 274 274 274 275 275 275 275 275 275 275 276 276 275 275 275 275 275 275 275 275 275 275 274 274 274 273 272 270 269
282 281 281 280 280 279 278 277 276 275 275 274 274 274 274 274 274 274 274 274 274 274 274 275 275 275 275 275 274 274 274 274 274 274 274 274 274 274 273 273 272 271 270
284 284 283 282 281 281 281 279 279 278 277 276 276 275 275 275 275 274 275 274 274 274 274 274 274 274 274 274 274 274 274 274 274 274 274 274 274 274 273 273 272 272 270
286 286 285 284 284 283 282 281 281 280 279 278 277 277 276 276 276 276 275 275 274 274 274 274 274 274 274 274 274 274 274 274 273 273 273 273 273 273 273 273 272 272 271
289 288 287 286 286 285 285 284 283 282 281 280 280 279 278 278 277 277 276 276 275 275 274 274 274 274 274 273 273 273 273 273 273 273 273 273 273 273 272 272 272 271 271
291 290 289 288 288 288 287 286 285 285 284 283 283 282 281 279 279 278 277 277 276 276 275 275 274 274 273 273 273 273 272 272 272 272 272 272 272 271 271 271 271 270 270
292 292 291 291 290 290 289 289 288 288 287 287 286 286 285 283 280 279 278 278 277 277 276 275 274 274 273 273 272 272 272 271 271 271 271 271 270 270 270 270 270 269 269
294 293 293 293 293 292 291 291 290 290 289 289 288 287 287 286 284 282 280 278 277 276 276 275 274 274 273 272 272 271 270 270 270 269 269 269 269 269 268 268 268 268 267
295 294 294 294 293 293 292 292 291 291 290 290 289 288 287 286 285 284 283 281 279 277 275 275 274 273 272 271 271 270 269 268 268 268 268 267 267 267 267 267 267 267 266
295 295 295 295 294 294 293 292 292 291 291 290 289 288 287 286 285 284 283 282 280 278 276 275 274 273 271 270 269 268 267 267 267 266 266 266 265 265 265 265 265 265 265
296 296 296 295 295 294 294 293 293 292 291 290 289 288 287 286 285 283 282 281 279 278 276 275 274 272 271 269 269 268 266 266 265 265 265 264 264 264 264 264 264 264 264
296 296 296 296 296 296 295 295 294 293 292 291 290 289 287 286 284 283 281 280 278 277 276 275 273 271 270 269 268 267 266 265 265 264 263 263 263 263 262 262 262 263 263
297 297 297 297 297 296 296 295 295 294 292 292 290 289 288 286 285 283 282 280 279 278 276 275 273 272 270 269 268 266 266 265 264 264 263 262 262 262 261 261 261 262 262
298 298 299 299 298 298 297 297 296 295 294 293 291 290 288 287 285 283 282 280 279 278 276 275 273 272 270 268 267 266 266 264 264 263 262 262 261 260 260 260 260 260 260
300 300 300 300 300 300 299 298 297 296 295 294 293 291 290 288 286 285 283 281 280 279 278 276 273 272 270 268 267 266 265 265 263 262 262 261 260 260 260 259 259 259 259
302 302 302 302 302 301 301 300 298 297 296 295 294 293 291 290 288 286 285 283 281 280 279 276 273 271 269 268 266 265 264 264 262 261 261 260 260 259 258 258 258 258 258
304 304 304 304 303 303 302 300 299 298 297 296 295 294 292 291 289 288 286 284 283 281 279 278 274 271 269 268 266 265 264 263 262 261 260 259 259 258 257 257 257 257 257
306 306 306 305 305 304 303 301 301 300 299 298 297 295 294 292 291 289 288 287 284 283 281 279 276 272 269 267 266 265 263 263 262 261 260 259 258 258 257 256 257 257 257
308 307 307 307 306 305 304 303 302 301 300 298 297 296 295 293 292 291 290 288 286 284 282 280 277 274 271 268 266 265 263 262 262 262 261 259 258 258 257 256 255 256 256
309 309 308 308 307 306 305 304 303 302 301 299 298 296 295 294 293 291 290 288 286 285 283 280 278 275 272 270 267 266 264 263 262 261 260 259 258 257 257 256 256 256 255
310 310 309 308 308 307 305 304 303 302 301 300 299 297 296 295 293 292 290 289 287 286 283 281 279 276 273 270 268 267 265 264 263 262 260 260 259 258 258 257 256 256 256
311 311 310 309 308 307 306 305 304 303 302 300 299 298 297 295 293 292 291 289 287 285 283 281 280 277 274 272 270 269 267 265 264 263 262 261 260 259 258 257 257 256 256
312 311 311 310 309 308 307 306 305 304 302 300 299 298 297 295 293 292 291 290 288 286 283 282 280 278 276 274 272 270 269 268 266 265 264 263 261 260 259 258 257 257 256
312 312 311 310 309 308 307 307 306 304 302 301 300 299 297 295 294 293 292 290 289 287 285 283 281 279 278 276 273 272 270 269 268 266 265 264 263 261 260 259 258 257 256
Height
5830 5828 5827 5826 5825 5824 5823 5822 5821 5820 5818 5817 5816 5815 5814 5813 5812 5812 5811 5810 5809 5808 5807 5806 5805 5804 5803 5802 5802 5801 5800 5799 5798 5798 5797 5797 5796 5796 5795 5795 5795 5795 5796
5822 5821 5820 5818 5817 5816 5815 5813 5812 5811 5810 5808 5807 5806 5804 5803 5803 5802 5801 5800 5799 5798 5797 5796 5795 5794 5793 5792 5791 5790 5789 5788 5788 5787 5786 5786 5785 5785 5784 5784 5784 5784 5785
5815 5813 5812 5810 5808 5807 5806 5804 5803 5801 5800 5798 5797 5795 5794 5793 5792 5791 5790 5789 5788 5787 5786 5784 5783 5782 5781 5780 5779 5778 5777 5777 5776 5775 5775 5774 5773 5773 5773 5772 5772 5772 5772
5807 5806 5804 5802 5799 5798 5796 5795 5793 5791 5789 5788 5786 5784 5783 5782 5781 5779 5778 5777 5776 5775 5773 5772 5770 5769 5768 5767 5766 5765 5765 5764 5763 5762 5762 5761 5761 5760 5760 5760 5759 5759 5759
5799 5797 5795 5793 5790 5789 5787 5785 5783 5781 5779 5777 5775 5773 5771 5770 5769 5767 5766 5764 5763 5762 5760 5758 5757 5756 5755 5753 5752 5751 5751 5750 5749 5749 5748 5747 5747 5746 5746 5746 5746 5746 5746
5791 5789 5787 5784 5781 5779 5777 5774 5772 5770 5768 5765 5763 5761 5760 5757 5756 5754 5753 5751 5749 5747 5746 5744 5742 5741 5740 5739 5738 5736 5736 5735 5734 5734 5733 5733 5732 5732 5732 5731 5731 5731 5731
5783 5780 5777 5775 5772 5770 5767 5764 5761 5759 5756 5753 5751 5749 5747 5745 5743 5741 5739 5737 5735 5733 5730 5729 5727 5725 5724 5723 5722 5721 5720 5719 5718 5718 5718 5717 5717 5717 5716 5716 5716 5717 5717
5774 5771 5768 5765 5762 5759 5756 5753 5750 5747 5744 5741 5738 5734 5734 5733 5731 5728 5725 5722 5719 5717 5715 5713 5711 5709 5707 5706 5705 5704 5703 5702 5701 5701 5701 5701 5701 5701 5701 5701 5701 5701 5701
5764 5761 5758 5755 5752 5749 5745 5742 5738 5734 5732 5728 5724 5720 5717 5716 5715 5714 5711 5707 5704 5700 5698 5695 5693 5691 5689 5688 5687 5686 5685 5684 5684 5683 5683 5683 5684 5684 5684 5684 5685 5685 5686
5754 5751 5748 5744 5741 5737 5733 5729 5725 5721 5717 5714 5709 5706 5701 5697 5694 5695 5695 5692 5688 5683 5680 5677 5674 5672 5670 5668 5668 5667 5665 5665 5664 5664 5664 5665 5665 5666 5666 5667 5667 5668 5669
5745 5741 5737 5733 5729 5725 5721 5717 5712 5707 5703 5698 5694 5689 5685 5680 5674 5671 5672 5671 5667 5665 5662 5658 5654 5652 5649 5647 5647 5646 5645 5644 5644 5644 5644 5645 5645 5646 5647 5648 5649 5650 5651
5734 5730 5726 5722 5717 5712 5708 5703 5697 5692 5687 5681 5676 5670 5665 5660 5656 5649 5647 5647 5644 5642 5639 5636 5634 5630 5627 5625 5624 5623 5622 5621 5622 5622 5623 5624 5625 5626 5627 5628 5630 5631 5633
5723 5719 5714 5709 5703 5698 5693 5687 5681 5675 5669 5662 5656 5650 5644 5638 5633 5627 5622 5620 5618 5617 5614 5613 5610 5607 5604 5601 5600 5598 5598 5598 5598 5600 5601 5602 5603 5605 5606 5608 5610 5612 5613
5711 5706 5700 5694 5688 5682 5675 5669 5662 5656 5648 5641 5634 5627 5620 5614 5607 5601 5596 5591 5589 5590 5588 5588 5584 5581 5578 5576 5574 5572 5573 5574 5575 5576 5577 5579 5581 5583 5585 5587 5589 5591 5593
5698 5692 5685 5679 5672 5664 5657 5649 5642 5634 5626 5619 5611 5602 5595 5588 5581 5574 5568 5562 5558 5558 5562 5563 5556 5553 5551 5549 5548 5546 5547 5549 5550 5552 5554 5556 5559 5561 5563 5566 5568 5571 5573
5682 5676 5669 5661 5653 5645 5636 5628 5620 5611 5602 5594 5585 5577 5569 5561 5554 5547 5541 5535 5529 5526 5529 5538 5529 5524 5523 5523 5522 5521 5521 5523 5525 5528 5531 5533 5536 5538 5541 5544 5547 5549 5552
5666 5658 5651 5642 5633 5624 5615 5605 5596 5587 5578 5569 5559 5551 5543 5534 5527 5521 5514 5508 5504 5499 5498 5508 5503 5498 5496 5498 5498 5497 5497 5499 5502 5505 5507 5510 5513 5516 5519 5522 5525 5528 5531
5648 5640 5631 5622 5613 5603 5592 5582 5572 5562 5553 5544 5535 5526 5518 5509 5502 5496 5489 5484 5479 5475 5472 5478 5480 5474 5473 5473 5474 5475 5475 5476 5479 5482 5485 5487 5491 5494 5497 5500 5504 5507 5510
5630 5621 5611 5601 5591 5580 5569 5558 5548 5539 5529 5520 5511 5503 5495 5486 5480 5473 5467 5463 5458 5454 5451 5451 5455 5452 5451 5451 5451 5453 5454 5455 5457 5460 5462 5466 5469 5473 5476 5480 5483 5487 5490
5611 5601 5590 5579 5568 5557 5546 5535 5525 5516 5507 5498 5489 5481 5474 5466 5460 5454 5448 5444 5439 5435 5432 5431 5432 5432 5431 5430 5430 5432 5434 5435 5437 5439 5442 5445 5449 5452 5456 5460 5464 5467 5470
5591 5580 5569 5558 5546 5535 5524 5513 5504 5495 5487 5478 5470 5462 5455 5448 5442 5436 5431 5426 5422 5418 5415 5413 5413 5413 5413 5412 5413 5413 5414 5416 5418 5420 5423 5427 5430 5433 5436 5440 5443 5446 5450
5571 5559 5548 5536 5525 5514 5503 5493 5483 5476 5468 5460 5453 5446 5439 5433 5427 5421 5415 5411 5406 5403 5400 5398 5397 5397 5397 5396 5396 5396 5397 5399 5402 5404 5404 5408 5410 5414 5418 5421 5424 5427 5430
5551 5539 5528 5516 5506 5495 5484 5475 5465 5457 5450 5443 5437 5430 5424 5418 5412 5407 5402 5397 5393 5389 5386 5384 5383 5383 5382 5382 5381 5381 5382 5383 5385 5386 5387 5391 5393 5396 5399 5402 5405 5408 5411
5531 5520 5509 5498 5487 5477 5467 5458 5449 5441 5435 5428 5421 5415 5409 5404 5398 5393 5389 5385 5381 5377 5374 5371 5370 5369 5368 5367 5366 5366 5366 5367 5369 5370 5371 5374 5376 5378 5380 5383 5386 5389 5392
5513 5501 5491 5480 5470 5461 5451 5442 5434 5427 5421 5414 5408 5402 5396 5390 5385 5380 5376 5372 5369 5366 5362 5359 5357 5356 5354 5353 5352 5352 5352 5352 5354 5355 5356 5357 5359 5360 5362 5365 5368 5370 5373
5494 5484 5474 5463 5454 5445 5436 5427 5419 5413 5407 5401 5395 5389 5383 5377 5373 5368 5364 5360 5357 5354 5350 5347 5345 5343 5341 5340 5339 5338 5337 5337 5338 5340 5341 5341 5341 5342 5345 5348 5350 5352 5354